measurement_time,temperature,humidity
1503183035,31.21,19.04
1503183095,31.43,19.49
1503183155,31.58,18.77
1503183215,31.59,18.04
1503183275,31.41,18.29
1503183335,31.31,18.71
1503183395,31.23,18.54
1503183455,31.30,18.88
1503183515,31.42,19.55
1503183575,31.54,18.85
1503183635,31.59,18.41
1503183695,31.54,17.65
1503183755,31.38,17.71
1503183815,31.18,16.84
1503183875,30.79,17.21
1503183935,30.60,18.16
1503183995,30.54,18.43
1503184055,30.52,19.16
1503184115,30.59,18.71
1503184175,30.69,19.07
1503184235,30.77,19.19
1503184295,30.97,19.74
1503184355,31.29,18.64
1503184415,31.55,17.57
1503184475,31.58,17.06
1503184535,31.36,17.04
1503184595,31.16,17.22
1503184655,30.98,16.77
1503184715,30.83,17.66
1503184775,30.70,17.09
1503184835,30.65,18.39
1503184895,30.78,18.41
1503184955,30.94,19.04
1503185015,31.00,18.23
1503185075,31.04,17.54
1503185135,30.92,17.62
1503185195,30.91,18.30
1503185255,31.04,17.94
1503185315,31.11,17.37
1503185375,31.06,16.43
1503185435,31.05,17.67
1503185495,31.26,18.04
1503185555,31.22,17.85
1503185615,31.21,17.74
1503185675,31.29,18.11
1503185735,31.34,17.17
1503185795,31.23,17.24
1503185855,31.22,18.89
1503185915,31.28,18.30
1503185975,31.31,17.98
1503186035,31.40,16.96
1503186095,31.55,17.35
1503186155,31.60,17.07
1503186215,31.66,17.30
1503186275,31.67,17.43
1503186335,31.64,17.69
1503186395,31.26,16.90
1503186455,31.10,17.85
1503186515,30.92,17.33
1503186575,30.92,18.21
1503186635,30.96,17.42
1503186695,30.82,17.68
1503186755,30.92,18.45
1503186815,31.06,18.14
1503186875,30.93,17.85
1503186935,30.96,18.12
1503186995,30.99,17.38
1503187055,31.00,17.77
1503187115,30.84,17.90
1503187175,30.72,16.96
1503187235,30.50,16.86
1503187295,30.39,16.91
1503187355,30.48,18.01
1503187415,30.59,17.43
1503187475,30.55,16.23
1503187535,30.41,16.11
1503187595,30.41,16.85
1503187655,30.51,17.47
1503187715,30.41,17.30
1503187775,30.32,16.90
1503187835,30.19,16.38
1503187895,30.07,15.85
1503187955,30.03,16.90
1503188015,30.04,17.90
1503188075,29.96,17.69
1503188135,29.93,17.03
1503188195,29.87,16.49
1503188255,29.82,16.85
1503188315,29.77,16.76
1503188375,29.70,16.99
1503188435,29.66,17.65
1503188495,29.67,17.20
1503188555,29.62,17.80
1503188615,29.54,17.14
1503188675,29.50,17.73
1503188735,29.48,17.51
1503188795,29.47,18.33
1503188855,29.44,17.04
1503188915,29.42,17.24
1503188975,29.43,17.52
1503189035,29.43,17.11
1503189095,29.42,17.41
1503189155,29.37,17.40
1503189215,29.39,17.71
1503189275,29.39,18.01
1503189335,29.35,18.30
1503189395,29.31,17.65
1503189455,29.27,17.67
1503189515,29.26,17.14
1503189575,29.23,17.46
1503189635,29.22,17.37
1503189695,29.22,17.69
1503189755,29.19,18.43
1503189815,29.17,17.92
1503189875,29.08,17.87
1503189935,29.04,17.94
1503189995,29.03,18.15
1503190055,29.03,17.59
1503190115,29.04,17.79
1503190175,29.03,18.02
1503190235,29.04,17.40
1503190295,29.03,16.71
1503190355,29.07,17.01
1503190415,29.04,16.86
1503190475,29.04,16.86
1503190535,29.03,16.83
1503190595,28.99,17.11
1503190655,28.94,16.67
1503190715,28.97,16.40
1503190775,28.93,16.95
1503190835,28.90,16.84
1503190895,28.86,17.37
1503190955,28.85,17.75
1503191015,28.83,17.53
1503191075,28.76,18.10
1503191135,28.73,17.74
1503191195,28.69,18.15
1503191255,28.64,18.36
1503191315,28.57,18.35
1503191375,28.57,17.62
1503191435,28.54,17.94
1503191495,28.57,17.30
1503191555,28.60,17.43
1503191615,28.56,17.88
1503191675,28.50,18.33
1503191735,28.43,18.04
1503191795,28.39,17.65
1503191855,28.47,17.19
1503191915,28.49,17.52
1503191975,28.64,16.95
1503192035,28.62,17.66
1503192095,28.56,17.67
1503192155,28.50,17.98
1503192215,28.45,17.91
1503192275,28.43,17.81
1503192335,28.38,17.72
1503192395,28.35,17.68
1503192455,28.38,17.78
1503192515,28.38,17.62
1503192575,28.37,18.43
1503192635,28.28,18.62
1503192695,28.26,18.39
1503192755,28.24,18.52
1503192815,28.23,18.00
1503192875,28.29,17.83
1503192935,28.37,17.69
1503192995,28.34,17.95
1503193055,28.32,18.07
1503193115,28.27,17.98
1503193175,28.29,17.66
1503193235,28.31,18.41
1503193295,28.27,18.41
1503193355,28.20,18.40
1503193415,28.13,18.32
1503193475,28.14,18.60
1503193535,28.12,18.40
1503193595,28.13,18.37
1503193655,28.17,18.45
1503193715,28.18,18.46
1503193775,28.20,18.26
1503193835,28.14,18.49
1503193895,28.03,18.78
1503193955,27.88,18.85
1503194015,27.79,19.08
1503194075,27.66,20.07
1503194135,27.55,19.76
1503194195,27.52,19.59
1503194255,27.45,20.04
1503194315,27.32,20.80
1503194375,27.19,20.88
1503194435,27.05,21.16
1503194495,26.98,21.13
1503194555,26.92,21.49
1503194615,26.81,21.71
1503194675,26.82,21.61
1503194735,26.90,21.19
1503194795,27.01,20.65
1503194855,27.04,21.10
1503194915,26.99,21.28
1503194975,26.87,21.63
1503195035,26.72,21.69
1503195095,26.58,22.58
1503195155,26.45,22.33
1503195215,26.35,22.99
1503195275,26.23,22.78
1503195335,26.12,22.64
1503195395,26.10,22.54
1503195455,26.08,22.64
1503195515,26.02,23.19
1503195575,25.87,23.03
1503195635,25.77,23.74
1503195695,25.60,24.33
1503195755,25.45,24.51
1503195815,25.28,25.15
1503195875,25.15,25.17
1503195935,25.03,25.96
1503195995,24.92,26.25
1503196055,24.77,27.19
1503196115,24.64,27.31
1503196175,24.48,27.25
1503196235,24.36,27.53
1503196295,24.29,27.31
1503196355,24.24,28.44
1503196415,24.15,28.79
1503196475,24.03,29.35
1503196535,23.91,29.79
1503196595,23.80,30.23
1503196655,23.70,30.47
1503196715,23.61,31.62
1503196775,23.49,31.62
1503196835,23.41,31.49
1503196895,23.34,31.59
1503196955,23.31,31.45
1503197015,23.26,32.90
1503197075,23.21,32.48
1503197135,23.13,32.31
1503197195,23.09,32.23
1503197255,23.08,33.49
1503197315,23.00,33.93
1503197375,22.98,34.04
1503197435,22.93,32.96
1503197495,22.86,33.14
1503197555,22.81,33.26
1503197615,22.78,33.26
1503197675,22.76,34.42
1503197735,22.77,33.39
1503197795,22.77,32.86
1503197855,22.76,33.95
1503197915,22.75,34.34
1503197975,22.68,34.00
1503198035,22.71,33.57
1503198095,22.69,34.29
1503198155,22.68,34.00
1503198215,22.64,34.11
1503198275,22.60,34.28
1503198335,22.51,34.72
1503198395,22.48,34.36
1503198455,22.43,33.99
1503198515,22.42,34.10
1503198575,22.38,34.74
1503198635,22.35,34.57
1503198695,22.24,33.75
1503198755,22.18,33.48
1503198815,22.11,33.78
1503198875,22.07,35.32
1503198935,22.01,35.22
1503198995,21.97,35.29
1503199055,21.94,35.65
1503199115,21.94,36.15
1503199175,21.88,36.19
1503199235,21.83,36.41
1503199295,21.78,36.28
1503199355,21.70,36.70
1503199415,21.63,37.46
1503199475,21.57,37.50
1503199535,21.52,39.63
1503199595,21.47,39.33
1503199655,21.43,38.50
1503199715,21.38,38.65
1503199775,21.33,39.22
1503199835,21.29,39.26
1503199895,21.24,38.57
1503199955,21.23,38.28
1503200015,21.21,38.10
1503200075,21.17,38.43
1503200135,21.17,39.73
1503200195,21.13,40.11
1503200255,21.08,40.06
1503200315,21.05,39.90
1503200375,21.02,41.50
1503200435,20.98,42.02
1503200495,20.89,40.53
1503200555,20.86,40.55
1503200615,20.81,43.88
1503200675,20.76,42.23
1503200735,20.69,40.75
1503200795,20.63,40.37
1503200855,20.63,40.76
1503200915,20.62,41.93
1503200975,20.58,42.41
1503201035,20.57,43.02
1503201095,20.53,43.29
1503201155,20.44,43.14
1503201215,20.37,42.82
1503201275,20.29,41.99
1503201335,20.26,41.67
1503201395,20.20,41.62
1503201455,20.15,41.87
1503201515,20.15,42.37
1503201575,20.16,42.09
1503201635,20.16,42.15
1503201695,20.14,41.81
1503201755,20.15,42.34
1503201815,20.11,42.76
1503201875,20.04,42.68
1503201935,19.99,43.04
1503201995,19.97,42.72
1503202055,19.91,43.14
1503202115,19.89,43.34
1503202175,19.83,43.27
1503202235,19.81,43.55
1503202295,19.76,44.35
1503202355,19.76,45.78
1503202415,19.73,45.56
1503202475,19.70,45.22
1503202535,19.65,45.26
1503202595,19.59,45.33
1503202655,19.58,44.75
1503202715,19.53,44.39
1503202775,19.57,44.01
1503202835,19.58,44.95
1503202895,19.56,45.38
1503202955,19.56,44.54
1503203015,19.55,46.40
1503203075,19.52,46.56
1503203135,19.50,46.30
1503203195,19.50,46.84
1503203255,19.50,46.67
1503203315,19.46,47.26
1503203375,19.44,47.14
1503203435,19.47,48.41
1503203495,19.45,49.03
1503203555,19.44,49.69
1503203615,19.37,49.82
1503203675,19.31,49.13
1503203735,19.24,48.65
1503203795,19.15,47.81
1503203855,19.09,47.39
1503203915,19.02,47.33
1503203975,18.97,47.42
1503204035,18.89,47.87
1503204095,18.85,48.63
1503204155,18.80,48.49
1503204215,18.74,48.78
1503204275,18.72,49.23
1503204335,18.65,48.90
1503204395,18.62,48.65
1503204455,18.56,48.54
1503204515,18.55,48.50
1503204575,18.51,49.10
1503204635,18.49,48.93
1503204695,18.50,48.96
1503204755,18.49,48.65
1503204815,18.49,48.73
1503204875,18.46,48.87
1503204935,18.47,49.84
1503204995,18.48,50.32
1503205055,18.46,50.32
1503205115,18.44,50.26
1503205175,18.47,51.30
1503205235,18.57,51.38
1503205295,18.59,50.78
1503205355,18.56,50.27
1503205415,18.51,50.10
1503205475,18.49,50.61
1503205535,18.50,50.22
1503205595,18.49,49.10
1503205655,18.49,49.48
1503205715,18.44,49.19
1503205775,18.43,49.03
1503205835,18.40,49.29
1503205895,18.36,50.79
1503205955,18.33,50.82
1503206015,18.33,50.51
1503206075,18.30,51.97
1503206135,18.28,52.05
1503206195,18.26,51.76
1503206255,18.20,51.09
1503206315,18.13,51.44
1503206375,18.06,51.25
1503206435,18.03,51.36
1503206495,17.94,51.07
1503206555,17.92,51.06
1503206615,17.85,51.73
1503206675,17.84,52.18
1503206735,17.82,51.80
1503206795,17.80,51.73
1503206855,17.74,52.19
1503206915,17.68,52.28
1503206975,17.68,52.34
1503207035,17.66,52.95
1503207095,17.67,53.36
1503207155,17.66,53.28
1503207215,17.67,52.75
1503207275,17.63,52.63
1503207335,17.67,52.65
1503207395,17.70,53.78
1503207455,17.72,53.80
1503207515,17.73,53.06
1503207575,17.76,52.91
1503207635,17.74,53.22
1503207695,17.73,53.06
1503207755,17.67,52.73
1503207815,17.61,52.43
1503207875,17.58,52.46
1503207935,17.55,54.05
1503207995,17.48,53.41
1503208055,17.41,53.75
1503208115,17.34,53.51
1503208175,17.30,53.87
1503208235,17.23,54.75
1503208295,17.22,54.73
1503208355,17.19,54.78
1503208415,17.17,54.82
1503208475,17.09,54.38
1503208535,17.08,54.43
1503208595,17.05,54.35
1503208655,17.04,54.57
1503208715,17.02,54.41
1503208775,16.96,54.25
1503208835,16.94,54.48
1503208895,16.95,55.18
1503208955,16.91,54.90
1503209015,16.87,54.72
1503209075,16.84,54.69
1503209135,16.79,55.19
1503209195,16.77,55.41
1503209255,16.76,55.30
1503209315,16.75,55.32
1503209375,16.77,55.60
1503209435,16.78,55.79
1503209495,16.81,56.37
1503209555,16.84,56.87
1503209615,16.81,56.78
1503209675,16.78,56.80
1503209735,16.77,56.73
1503209795,16.75,57.38
1503209855,16.71,57.20
1503209915,16.65,57.54
1503209975,16.60,57.27
1503210035,16.58,57.21
1503210095,16.56,57.11
1503210155,16.51,56.95
1503210215,16.48,57.11
1503210275,16.44,57.24
1503210335,16.42,57.05
1503210395,16.39,57.18
1503210455,16.35,56.08
1503210515,16.34,56.21
1503210575,16.35,57.21
1503210635,16.39,57.60
1503210695,16.39,56.94
1503210755,16.37,56.76
1503210815,16.37,56.55
1503210875,16.35,56.11
1503210935,16.41,55.76
1503210995,16.43,55.83
1503211055,16.43,56.13
1503211115,16.41,56.47
1503211175,16.42,56.89
1503211235,16.45,56.92
1503211295,16.45,56.44
1503211355,16.43,56.82
1503211415,16.44,56.82
1503211475,16.46,56.58
1503211535,16.44,56.50
1503211595,16.41,56.34
1503211655,16.39,56.85
1503211715,16.43,57.40
1503211775,16.43,57.61
1503211835,16.41,57.25
1503211895,16.36,56.82
1503211955,16.31,56.58
1503212015,16.28,56.22
1503212075,16.27,56.18
1503212135,16.24,56.63
1503212195,16.17,56.26
1503212255,16.14,56.19
1503212315,16.08,56.32
1503212375,16.00,56.43
1503212435,16.00,56.76
1503212495,16.00,56.87
1503212555,16.02,56.89
1503212615,15.99,57.24
1503212675,15.95,57.44
1503212735,15.97,57.40
1503212795,16.02,58.44
1503212855,15.97,58.10
1503212915,15.93,57.92
1503212975,15.93,58.36
1503213035,15.89,58.81
1503213095,15.90,59.31
1503213155,15.86,59.30
1503213215,15.84,59.22
1503213275,15.83,59.11
1503213335,15.80,59.04
1503213395,15.73,59.22
1503213455,15.69,59.49
1503213515,15.66,59.36
1503213575,15.65,59.26
1503213635,15.59,59.53
1503213695,15.55,59.72
1503213755,15.53,59.58
1503213815,15.49,59.94
1503213875,15.51,61.02
1503213935,15.49,60.45
1503213995,15.44,59.99
1503214055,15.42,60.07
1503214115,15.38,60.17
1503214175,15.36,59.93
1503214235,15.36,60.16
1503214295,15.33,60.79
1503214355,15.28,60.84
1503214415,15.30,60.81
1503214475,15.30,60.85
1503214535,15.28,60.72
1503214595,15.26,60.91
1503214655,15.19,60.80
1503214715,15.16,60.77
1503214775,15.15,61.07
1503214835,15.18,61.55
1503214895,15.16,61.75
1503214955,15.15,61.81
1503215015,15.17,62.02
1503215075,15.12,62.30
1503215135,15.08,62.24
1503215195,15.06,62.19
1503215255,15.04,62.29
1503215315,15.02,61.90
1503215375,14.98,61.82
1503215435,14.97,61.78
1503215495,14.96,61.72
1503215555,14.97,61.81
1503215615,14.92,61.43
1503215675,14.88,61.33
1503215735,14.87,61.23
1503215795,14.87,61.69
1503215855,14.86,61.49
1503215915,14.85,61.36
1503215975,14.85,61.78
1503216035,14.86,61.71
1503216095,14.88,61.32
1503216155,14.88,60.81
1503216215,14.92,60.46
1503216275,14.91,60.64
1503216335,14.89,61.42
1503216395,14.87,61.21
1503216455,14.81,61.28
1503216515,14.80,61.45
1503216575,14.80,61.49
1503216635,14.78,60.90
1503216695,14.73,60.20
1503216755,14.68,60.02
1503216815,14.66,60.07
1503216875,14.63,60.10
1503216935,14.59,59.88
1503216995,14.59,60.10
1503217055,14.59,59.87
1503217115,14.59,59.83
1503217175,14.62,59.94
1503217235,14.60,60.04
1503217295,14.64,60.07
1503217355,14.63,59.91
1503217415,14.59,59.86
1503217475,14.57,59.59
1503217535,14.59,59.24
1503217595,14.59,58.85
1503217655,14.57,58.95
1503217715,14.57,59.00
1503217775,14.53,58.79
1503217835,14.52,58.81
1503217895,14.52,58.70
1503217955,14.50,58.57
1503218015,14.50,58.62
1503218075,14.49,58.50
1503218135,14.49,58.85
1503218195,14.45,58.89
1503218255,14.43,59.83
1503218315,14.39,59.56
1503218375,14.36,59.33
1503218435,14.32,59.17
1503218495,14.29,59.14
1503218555,14.28,59.30
1503218615,14.32,59.26
1503218675,14.30,59.40
1503218735,14.33,59.84
1503218795,14.32,60.90
1503218855,14.28,61.00
1503218915,14.26,60.58
1503218975,14.27,60.63
1503219035,14.24,60.66
1503219095,14.25,60.53
1503219155,14.22,60.56
1503219215,14.19,60.77
1503219275,14.18,60.90
1503219335,14.15,60.93
1503219395,14.13,60.49
1503219455,14.09,60.34
1503219515,14.05,60.33
1503219575,13.99,60.33
1503219635,13.93,60.43
1503219695,13.90,60.53
1503219755,13.86,60.68
1503219815,13.82,61.56
1503219875,13.80,63.32
1503219935,13.82,64.07
1503219995,13.82,64.31
1503220055,13.80,64.26
1503220115,13.83,63.39
1503220175,13.83,62.45
1503220235,13.83,62.09
1503220295,13.83,61.75
1503220355,13.82,61.42
1503220415,13.81,61.70
1503220475,13.81,61.52
1503220535,13.82,61.09
1503220595,13.79,60.77
1503220655,13.82,60.59
1503220715,13.81,60.32
1503220775,13.79,60.25
1503220835,13.79,60.28
1503220895,13.80,59.96
1503220955,13.79,59.81
1503221015,13.84,60.17
1503221075,13.83,60.67
1503221135,13.83,61.08
1503221195,13.79,61.54
1503221255,13.79,61.52
1503221315,13.80,61.34
1503221375,13.79,61.23
1503221435,13.76,61.07
1503221495,13.75,60.53
1503221555,13.68,60.51
1503221615,13.68,60.98
1503221675,13.73,61.04
1503221735,13.76,61.45
1503221795,13.74,61.44
1503221855,13.70,61.32
1503221915,13.66,61.46
1503221975,13.63,61.06
1503222035,13.61,61.07
1503222095,13.54,61.23
1503222155,13.53,61.57
1503222215,13.48,61.66
1503222275,13.43,61.61
1503222335,13.38,61.39
1503222395,13.37,61.62
1503222455,13.37,62.12
1503222515,13.34,62.29
1503222575,13.33,62.39
1503222635,13.31,62.84
1503222695,13.26,63.46
1503222755,13.24,64.14
1503222815,13.20,64.00
1503222875,13.16,63.90
1503222935,13.08,63.84
1503222995,13.03,63.88
1503223055,13.01,64.13
1503223115,12.99,64.08
1503223175,13.02,64.13
1503223235,13.06,64.22
1503223295,13.07,63.97
1503223355,13.05,63.42
1503223415,13.06,62.94
1503223475,13.07,62.61
1503223535,13.07,62.61
1503223595,13.08,62.48
1503223655,13.08,62.01
1503223715,13.09,61.87
1503223775,13.07,61.59
1503223835,13.07,61.68
1503223895,13.06,62.22
1503223955,13.01,62.76
1503224015,12.99,63.14
1503224075,12.97,63.13
1503224135,12.93,63.34
1503224195,12.93,65.03
1503224255,12.87,65.80
1503224315,12.81,65.61
1503224375,12.74,65.87
1503224435,12.72,66.83
1503224495,12.70,66.12
1503224555,12.70,65.60
1503224615,12.63,65.19
1503224675,12.60,65.12
1503224735,12.61,65.12
1503224795,12.61,65.09
1503224855,12.63,64.87
1503224915,12.66,64.61
1503224975,12.69,64.22
1503225035,12.72,64.05
1503225095,12.74,63.95
1503225155,12.75,63.88
1503225215,12.78,63.64
1503225275,12.79,63.58
1503225335,12.78,63.33
1503225395,12.79,63.11
1503225455,12.76,62.71
1503225515,12.78,62.61
1503225575,12.80,63.03
1503225635,12.79,63.53
1503225695,12.76,63.93
1503225755,12.77,64.30
1503225815,12.73,64.46
1503225875,12.70,64.95
1503225935,12.71,65.16
1503225995,12.67,65.08
1503226055,12.70,64.87
1503226115,12.69,65.48
1503226175,12.71,66.43
1503226235,12.61,65.77
1503226295,12.55,65.77
1503226355,12.46,65.72
1503226415,12.41,65.79
1503226475,12.38,66.07
1503226535,12.33,66.15
1503226595,12.29,65.86
1503226655,12.23,65.91
1503226715,12.18,65.99
1503226775,12.16,65.85
1503226835,12.16,65.90
1503226895,12.17,66.13
1503226955,12.20,66.20
1503227015,12.21,66.44
1503227075,12.23,66.76
1503227135,12.25,66.67
1503227195,12.22,66.60
1503227255,12.20,66.40
1503227315,12.19,66.17
1503227375,12.17,65.99
1503227435,12.16,65.82
1503227495,12.15,65.99
1503227555,12.16,66.54
1503227615,12.16,66.32
1503227675,12.16,66.04
1503227735,12.14,66.20
1503227795,12.11,66.33
1503227855,12.12,66.44
1503227915,12.13,66.67
1503227975,12.14,66.73
1503228035,12.15,67.02
1503228095,12.15,66.81
1503228155,12.17,66.77
1503228215,12.14,66.59
1503228275,12.13,66.63
1503228335,12.12,66.53
1503228395,12.12,66.48
1503228455,12.14,66.28
1503228515,12.15,66.17
1503228575,12.14,66.15
1503228635,12.14,65.95
1503228695,12.13,65.72
1503228755,12.11,65.38
1503228815,12.07,65.45
1503228875,12.07,65.50
1503228935,12.11,66.32
1503228995,12.11,66.69
1503229055,12.10,66.93
1503229115,12.11,67.02
1503229175,12.07,66.84
1503229235,12.07,66.36
1503229295,12.06,66.41
1503229355,12.05,66.48
1503229415,12.03,66.64
1503229475,12.04,66.72
1503229535,12.04,67.25
1503229595,12.03,67.45
1503229655,12.02,67.30
1503229715,12.03,67.09
1503229775,12.06,66.63
1503229835,12.05,66.29
1503229895,12.06,66.12
1503229955,12.06,66.57
1503230015,12.08,66.75
1503230075,12.08,66.90
1503230135,12.07,66.81
1503230195,12.10,66.60
1503230255,12.10,66.47
1503230315,12.06,66.37
1503230375,12.06,66.44
1503230435,12.03,66.32
1503230495,12.02,66.30
1503230555,11.98,66.24
1503230615,11.96,66.06
1503230675,11.90,65.96
1503230735,11.88,65.85
1503230795,11.85,65.77
1503230855,11.88,65.93
1503230915,11.88,66.07
1503230975,11.90,66.00
1503231035,11.88,66.03
1503231095,11.88,65.99
1503231155,11.89,65.85
1503231215,11.90,65.75
1503231275,11.90,65.70
1503231335,11.91,65.54
1503231395,11.92,65.64
1503231455,11.88,65.61
1503231515,11.88,65.80
1503231575,11.87,66.03
1503231635,11.84,65.98
1503231695,11.83,65.90
1503231755,11.82,66.18
1503231815,11.79,66.67
1503231875,11.76,66.67
1503231935,11.74,66.64
1503231995,11.73,66.42
1503232055,11.72,66.18
1503232115,11.67,66.19
1503232175,11.66,66.78
1503232235,11.64,66.93
1503232295,11.63,67.03
1503232355,11.63,67.17
1503232415,11.64,67.45
1503232475,11.68,67.79
1503232535,11.66,68.58
1503232595,11.70,69.02
1503232655,11.70,68.44
1503232715,11.69,68.12
1503232775,11.64,68.21
1503232835,11.60,68.48
1503232895,11.59,68.73
1503232955,11.53,68.76
1503233015,11.53,68.56
1503233075,11.51,68.64
1503233135,11.51,68.92
1503233195,11.51,69.17
1503233255,11.46,69.27
1503233315,11.45,69.37
1503233375,11.47,69.58
1503233435,11.46,69.63
1503233495,11.47,69.57
1503233555,11.46,69.34
1503233615,11.46,69.31
1503233675,11.48,69.28
1503233735,11.49,69.24
1503233795,11.51,69.26
1503233855,11.49,69.06
1503233915,11.51,69.42
1503233975,11.47,69.53
1503234035,11.49,69.46
1503234095,11.48,69.38
1503234155,11.47,69.30
1503234215,11.47,69.50
1503234275,11.48,70.08
1503234335,11.51,70.07
1503234395,11.48,69.95
1503234455,11.48,69.97
1503234515,11.48,70.03
1503234575,11.47,69.78
1503234635,11.44,69.54
1503234695,11.43,69.44
1503234755,11.43,69.44
1503234815,11.46,70.37
1503234875,11.44,70.98
1503234935,11.44,71.36
1503234995,11.42,71.50
1503235055,11.44,71.33
1503235115,11.45,70.98
1503235175,11.45,71.33
1503235235,11.47,71.34
1503235295,11.46,70.96
1503235355,11.47,70.89
1503235415,11.47,70.66
1503235475,11.49,70.75
1503235535,11.53,70.90
1503235595,11.52,70.90
1503235655,11.58,70.94
1503235715,11.60,70.64
1503235775,11.63,70.92
1503235835,11.68,71.03
1503235895,11.68,71.06
1503235955,11.70,70.94
1503236015,11.72,70.80
1503236075,11.74,71.18
1503236135,11.78,70.73
1503236195,11.83,70.23
1503236255,11.87,70.11
1503236315,11.92,69.76
1503236375,11.92,69.38
1503236435,11.98,69.04
1503236495,12.03,68.90
1503236555,12.10,68.75
1503236615,12.15,68.74
1503236675,12.20,68.70
1503236735,12.23,68.40
1503236795,12.25,68.14
1503236855,12.28,68.05
1503236915,12.33,67.75
1503236975,12.38,67.57
1503237035,12.44,67.55
1503237095,12.49,68.12
1503237155,12.50,67.72
1503237215,12.51,67.29
1503237275,12.51,67.21
1503237335,12.55,67.06
1503237395,12.58,66.89
1503237455,12.65,66.96
1503237515,12.77,68.14
1503237575,12.86,67.67
1503237635,12.90,67.12
1503237695,12.91,66.55
1503237755,12.96,66.17
1503237815,12.99,65.88
1503237875,13.01,65.75
1503237935,13.08,65.64
1503237995,13.14,65.72
1503238055,13.15,66.30
1503238115,13.16,66.22
1503238175,13.21,66.54
1503238235,13.22,66.23
1503238295,13.23,65.93
1503238355,13.25,66.07
1503238415,13.30,65.63
1503238475,13.31,65.29
1503238535,13.33,65.52
1503238595,13.35,65.40
1503238655,13.39,65.54
1503238715,13.45,65.46
1503238775,13.49,65.38
1503238835,13.53,64.93
1503238895,13.59,65.22
1503238955,13.66,65.67
1503239015,13.74,65.45
1503239075,13.80,65.45
1503239135,13.86,65.10
1503239195,13.90,64.31
1503239255,13.93,63.19
1503239315,13.98,63.05
1503239375,14.03,63.20
1503239435,14.11,63.36
1503239495,14.15,62.98
1503239555,14.22,62.90
1503239615,14.24,62.58
1503239675,14.32,62.18
1503239735,14.38,62.07
1503239795,14.43,62.10
1503239855,14.50,62.28
1503239915,14.53,61.90
1503239975,14.59,61.24
1503240035,14.66,60.63
1503240095,14.72,60.28
1503240155,14.78,60.16
1503240215,14.81,59.50
1503240275,14.83,58.98
1503240335,14.91,58.94
1503240395,14.97,58.40
1503240455,15.03,58.09
1503240515,15.08,58.20
1503240575,15.11,58.30
1503240635,15.15,57.97
1503240695,15.19,57.69
1503240755,15.21,57.86
1503240815,15.28,58.50
1503240875,15.39,58.62
1503240935,15.42,58.73
1503240995,15.48,58.40
1503241055,15.52,58.12
1503241115,15.56,57.85
1503241175,15.59,57.66
1503241235,15.62,57.72
1503241295,15.62,56.86
1503241355,15.63,56.88
1503241415,15.70,57.05
1503241475,15.73,57.15
1503241535,15.75,56.58
1503241595,15.74,56.74
1503241655,15.72,56.48
1503241715,15.72,56.73
1503241775,15.74,56.78
1503241835,15.80,57.20
1503241895,15.87,57.33
1503241955,15.96,56.15
1503242015,15.99,56.38
1503242075,16.04,56.94
1503242135,16.12,56.57
1503242195,16.21,56.13
1503242255,16.28,56.53
1503242315,16.35,56.71
1503242375,16.43,56.62
1503242435,16.48,56.50
1503242495,16.54,56.27
1503242555,16.58,56.24
1503242615,16.64,56.15
1503242675,16.71,56.04
1503242735,16.78,55.38
1503242795,16.86,54.83
1503242855,16.89,54.99
1503242915,16.93,55.13
1503242975,16.94,54.56
1503243035,16.95,53.97
1503243095,16.98,54.08
1503243155,17.04,53.75
1503243215,17.01,53.07
1503243275,17.00,53.10
1503243335,17.03,53.58
1503243395,17.03,53.24
1503243455,17.06,53.24
1503243515,17.10,53.03
1503243575,17.09,52.73
1503243635,17.08,53.01
1503243695,17.17,53.56
1503243755,17.28,54.18
1503243815,17.37,54.22
1503243875,17.50,53.92
1503243935,17.59,53.38
1503243995,17.66,53.25
1503244055,17.74,53.03
1503244115,17.83,52.55
1503244175,17.80,50.85
1503244235,17.78,51.53
1503244295,17.83,52.20
1503244355,17.91,51.97
1503244415,17.99,51.11
1503244475,18.06,50.39
1503244535,18.09,50.45
1503244595,18.13,50.61
1503244655,18.13,50.69
1503244715,18.17,50.97
1503244775,18.23,51.13
1503244835,18.20,50.66
1503244895,18.21,50.95
1503244955,18.26,51.09
1503245015,18.34,50.81
1503245075,18.42,50.77
1503245135,18.51,51.31
1503245195,18.68,51.39
1503245255,18.84,50.49
1503245315,18.87,49.77
1503245375,18.92,49.55
1503245435,18.97,49.67